Location: Abundant Grace Fellowship
(35.0349°N, 90.0924°W)
Time: 23:14:20
(UTC+00:00)

USA 267 - Pass Details

Date: 18 January 2026
Orbit: 1101 x 1107 km, 123.0° (Epoch: 10 January)

Event Time Altitude Azimuth Distance (km) Brightness Sun altitude
Exits shadow 01:48:16 29° 0° (N) 1,906 4.4 -31.2°
Drops below altitude 10° 01:52:01 10° 332° (NNW) 2,963 5.8 -32.0°
Sets 01:54:43 0° 324° (NW) 3,922 6.6 -32.5°
